User: anonymous   Login
Location: Unspecified
(0.0000°N, 0.0000°E)
Time: 04:15:59
(UTC+00:00)
Language:

OBJECT A - Orbit

View from above orbital plane
View from above orbital plane
View from above satellite
View from above satellite

Ground track
Ground track

The orbit is defined by the following mean orbital elements,

1 52153U          26145.62318550 +.00000000 +00000-0 +64874-4 0 00000
2 52153  97.5873 183.9917 0008982 254.4896 105.5335 14.97131241    05
Epoch (UTC): 25 May 2026 14:57:23
Eccentricity: 0.0008982
inclination: 97.5873°
perigee height: 570 km
apogee height: 582 km
right ascension of ascending node: 183.9917°
argument of perigee: 254.4896°
revolutions per day: 14.97131241
mean anomaly at epoch: 105.5335°

The dashed part of the orbit path shows where the satellite is in the earth's shadow,  

DLR